Regional Weather Roundup
Issued by NWS

Home | Current Version | Previous Version | Text Only | Print | Product List | Glossary On
Versions: 1 2 3 4 5 6 7 8 9 10 11 12 13 14 15 16 17 18 19 20 21 22 23 24 25 26 27
000
ASUS45 KBOU 260307
RWRCO

WEATHER ROUNDUP FOR COLORADO
NATIONAL WEATHER SERVICE DENVER/BOULDER CO
900 PM MDT SAT OCT 25 2014

NOTE: "FAIR" INDICATES FEW OR NO CLOUDS BELOW 12000 FEET WITH NO
SIGNIFICANT WEATHER AND/OR OBSTRUCTIONS TO VISIBILITY.

COZ001>005-013-030-031-260400-
...NORTHWEST COLORADO...

CITY           SKY/WX    TMP DP  RH WIND       PRES   REMARKS
CRAIG          PTCLDY    47  30  51 E7        30.10F
HAYDEN         MOCLDY    55  23  28 SW7       30.12F
MEEKER         PTCLDY    44  35  70 E5        30.12F
MOUNT WERNER   NOT AVBL
STEAMBOAT SPGS MOCLDY    52  24  34 CALM      30.14S
WALDEN         PTCLDY    41  19  42 SE7       30.20F
$$

COZ006>008-011-260400-
...WEST CENTRAL VALLEYS...

CITY           SKY/WX    TMP DP  RH WIND       PRES   REMARKS
GRAND JUNCTION CLEAR     58  32  37 CALM      30.07S
MONTROSE       CLEAR     56  34  43 E9        30.16S
EAGLE          CLEAR     48  30  49 E6        30.17F
RIFLE          PTCLDY    54  35  48 SE5       30.10R
DELTA          CLEAR     67  32  27 NW6       30.11F
NUCLA          MOCLDY    59  32  36 E7        30.21S
$$

COZ017>023-064>068-260400-
...SOUTHWEST COLORADO...

CITY           SKY/WX    TMP DP  RH WIND       PRES   REMARKS
DURANGO        MOCLDY    51  35  54 N8        30.24S
CORTEZ         PTCLDY    51  36  56 E8        30.19S
PAGOSA SPRINGS CLEAR     49  29  46 CALM      30.31S
TELLURIDE      CLEAR     54  28  36 CALM      30.37S
WOLF CREEK PAS CLEAR     39  23  52 SW25G37     N/A
$$

COZ009-010-012-014-032>034-037-058>063-260400-
...CENTRAL COLORADO...

CITY           SKY/WX    TMP DP  RH WIND       PRES   REMARKS
ASPEN          CLEAR     48  27  44 S6        30.23F
BUENA VISTA    CLEAR     44  18  35 NW5       30.25S
COPPER MTN     NOT AVBL
BERTHOUD PASS  FAIR      37  34  87 NW6       30.52S
COTTONWOOD PAS CLEAR     55  18  22 W8G16     30.36F
GUNNISON       CLEAR     48  27  43 N3        30.28R
KREMMLING      PTCLDY    43  23  45 CALM        N/A
LEADVILLE      CLEAR     44  15  31 CALM      30.34F
MONARCH PASS   CLEAR     41  21  45 W20       30.59F
SALIDA         CLEAR     59  20  22 W10       30.29S
SUNLIGHT       PTCLDY    45  28  53 CALM      30.40S
WILKERSON PASS NOT AVBL
$$

COZ069>075-260400-
...SAN LUIS VALLEY/SANGRE DE CRISTO MOUNTAINS...

CITY           SKY/WX    TMP DP  RH WIND       PRES   REMARKS
ALAMOSA        CLEAR     53  23  31 SW12      30.25S
LA VETA PASS   CLEAR     46  21  36 SW10G18   30.37F
SAGUACHE       CLEAR     54  21  28 N7        30.26S
$$

COZ035-036-038>040-260400-
...NORTHERN COLORADO FRONT RANGE...

CITY           SKY/WX    TMP DP  RH WIND       PRES   REMARKS
DENVER INTL AP CLEAR     52  25  35 S12       30.02F
DMNS CITY PARK   N/A     58  26  29 W3        30.03S
AURORA         CLEAR     57  26  29 S10       30.05F
FRONT RANGE AP NOT AVBL
ERIE MUNI ARPT CLEAR     47  31  53 CALM      30.03S
BOULDER MUN AP CLEAR     59  30  33 CALM      30.03S
CENTENNIAL     CLEAR     58  25  28 SW13      30.06S
BROOMFIELD     CLEAR     68  19  15 NW5       30.05F
FORT COLLINS   CLEAR     61  27  27 N5        30.04S
LONGMONT       CLEAR     56  28  34 CALM      30.04S
$$

COZ041-046-047-076>085-087-088-260400-
...PIKES PEAK/PALMER DIVIDE AND SOUTHERN FOOTHILLS...

CITY           SKY/WX    TMP DP  RH WIND       PRES   REMARKS
COLO. SPRINGS  CLEAR     56  25  30 E5        30.11F
A. F. ACADEMY  CLEAR     49  24  38 N8        30.13S
ELLICOTT       NOT AVBL
FALCON         CLEAR     55  23  28 S10       30.15F
FORT CARSON    CLEAR     63  24  22 W8        30.08F
LIMON          CLEAR     44  32  62 N6        30.05F
MONUMENT HILL  CLEAR     54  21  28 S15       30.13F
TRINIDAD       CLEAR     57  28  33 W12       30.09F
$$

COZ042>045-048>051-090-091-260400-
...NORTHEAST COLORADO...

CITY           SKY/WX    TMP DP  RH WIND       PRES   REMARKS
GREELEY ARPT   CLEAR     48  27  43 NE3       30.01F
AKRON          CLEAR     59  34  39 SE8       30.02S
BURLINGTON     CLEAR     56  37  49 W6        29.99F
WRAY           CLEAR     53  35  50 CALM      29.97F
STERLING       CLEAR     52  37  58 NE5       29.98S
HOLYOKE        CLEAR     52  37  58 NE3       29.99S
FORT MORGAN    CLEAR     55  31  39 E7        30.00F
$$

COZ086-089-092>099-260400-
...SOUTHEAST COLORADO...

CITY           SKY/WX    TMP DP  RH WIND       PRES   REMARKS
PUEBLO         CLEAR     55  28  35 CALM      30.01S
LA JUNTA       CLEAR     66  33  29 CALM      29.96F
LAMAR          CLEAR     64  35  34 S9        29.92F
SPRINGFIELD      N/A     59  35  40 S13       30.01F
$$



USA.gov is the U.S. government's official web portal to all federal, state and local government web resources and services.